Wind_Speed
17 16 16 15 14 11 6 4 9 15 18 20 18 17 17 18 20 18 17 16 14 14 15 15 15 15 15 15 15 15 14 14 14 14 14 14 14 13 12 10 9 8 7 7 6 6 5 4 4
18 18 18 17 15 11 6 7 12 17 22 21 19 17 17 19 20 18 17 16 16 16 16 17 17 16 16 16 17 16 16 16 16 15 15 15 15 14 13 12 11 10 9 8 7 7 6 5 5
19 19 19 19 17 12 9 11 16 18 23 22 20 18 18 19 19 18 18 18 17 18 18 19 19 18 18 17 18 18 18 17 17 16 16 16 16 16 15 14 12 11 10 9 9 8 7 6 6
20 20 20 20 17 12 11 14 19 18 21 21 19 18 19 19 18 18 18 18 18 18 19 19 20 20 19 19 19 19 19 18 18 17 17 18 18 18 17 16 14 13 12 11 10 9 8 7 7
20 20 20 20 17 14 14 17 22 22 21 21 20 20 22 20 17 17 17 18 18 18 19 20 21 21 21 21 21 20 20 19 19 18 19 19 19 19 18 17 16 15 14 12 11 10 9 9 9
19 19 19 18 14 12 14 20 24 23 23 22 20 20 23 23 19 18 18 17 18 19 19 20 22 22 21 21 21 21 21 21 20 20 20 20 21 20 20 19 18 17 15 14 13 11 11 10 10
19 19 18 16 14 14 18 23 24 23 23 21 21 21 25 24 21 19 19 18 19 19 19 19 20 22 21 21 21 21 21 21 21 21 21 21 21 21 21 20 19 18 17 16 14 13 12 12 12
19 19 18 17 16 16 20 26 27 26 24 22 23 23 27 26 22 19 20 19 19 18 18 18 19 20 20 21 21 21 21 21 22 22 23 23 22 22 22 21 21 20 19 17 16 15 14 14 13
18 18 17 14 14 17 21 27 26 27 26 24 24 25 27 27 23 21 21 21 20 19 19 19 19 20 21 20 21 21 21 22 22 23 24 24 24 23 23 22 22 22 21 19 18 16 15 15 15
16 16 14 14 19 21 22 24 23 25 24 23 25 25 28 26 24 23 22 22 22 21 20 21 21 22 22 22 22 22 22 23 24 24 25 25 25 25 25 24 23 23 22 21 20 18 17 17 16
16 16 16 19 23 23 23 23 23 24 22 21 24 25 27 26 26 24 24 24 22 22 21 21 22 22 24 24 24 24 25 24 24 25 25 26 26 26 26 25 25 24 23 22 21 20 19 18 18
17 18 20 22 23 24 25 24 24 24 23 23 24 25 25 26 26 25 24 24 25 25 23 22 21 23 24 24 24 25 24 25 26 26 27 27 27 26 26 26 26 25 24 24 23 22 21 20 19
17 18 20 22 23 23 24 24 25 25 24 25 25 26 27 28 27 26 27 27 27 26 24 23 23 23 24 24 24 24 24 24 25 25 26 27 27 26 26 26 26 26 25 24 24 23 23 22 21
16 18 19 20 22 22 23 24 25 25 25 26 26 27 26 27 27 27 27 27 29 28 26 25 25 23 23 24 24 24 24 24 24 25 26 26 27 27 26 26 26 26 26 24 24 24 24 23 22
17 18 19 20 21 22 23 24 24 25 25 26 26 26 27 28 28 29 29 29 30 29 28 25 25 24 23 23 23 24 25 25 26 25 25 26 26 26 26 26 27 26 26 25 25 25 24 25 24
15 16 16 17 20 22 21 20 21 25 25 25 26 26 27 28 29 30 29 29 30 30 29 27 25 25 25 24 24 25 25 25 25 24 26 26 26 26 27 28 28 27 27 27 26 27 26 26 26
12 13 11 12 19 21 20 18 20 23 25 25 26 26 27 28 29 31 30 29 30 30 29 28 27 27 27 26 25 25 24 25 25 24 25 25 27 27 28 28 28 28 28 28 28 27 27 27 27
9 11 12 13 18 22 21 19 20 24 25 26 27 26 27 29 29 30 31 31 31 31 31 30 30 30 28 27 27 26 25 25 24 24 23 23 25 27 27 28 28 28 28 28 28 28 28 29 29
14 16 17 16 18 22 21 21 20 25 25 26 26 26 28 28 29 31 32 33 33 33 33 32 32 32 31 29 28 28 27 25 25 24 22 21 22 23 25 26 28 28 28 28 29 29 29 30 29
15 14 14 16 18 21 21 21 20 24 25 26 26 26 29 28 29 31 32 34 35 35 35 33 34 34 34 32 30 30 28 27 26 25 24 23 22 24 23 25 26 27 28 29 29 30 29 30 30
13 13 14 16 18 20 21 21 20 22 23 25 25 27 28 28 30 32 33 34 35 35 35 35 35 35 35 33 32 30 30 28 26 26 25 25 26 25 25 24 24 26 27 29 30 29 29 29 30
12 12 13 15 17 17 19 22 20 21 24 25 25 26 26 27 29 31 33 34 33 34 35 35 35 35 35 34 34 32 31 30 28 27 26 26 25 24 24 24 24 25 26 27 29 30 29 30 31
12 13 15 15 16 16 16 20 18 18 22 24 22 24 25 26 27 29 31 32 33 33 34 35 35 35 35 34 34 33 32 31 30 29 28 27 26 26 25 25 24 25 25 26 27 28 29 30 30
12 12 13 14 16 17 15 18 19 20 20 21 19 22 23 24 26 27 29 31 32 33 34 35 35 35 35 35 34 34 33 31 30 29 28 27 27 27 26 26 26 26 26 27 28 29 29 30 30
12 13 14 16 16 15 15 18 19 20 20 19 19 21 23 23 24 26 27 29 30 32 32 33 34 35 35 34 34 34 33 32 31 30 29 28 28 27 27 27 28 29 28 28 29 30 30 30 31
12 12 14 16 16 16 17 16 18 19 19 19 20 20 20 20 21 23 24 26 28 29 30 31 31 32 33 33 33 33 32 32 32 32 30 30 29 28 28 28 29 29 29 30 30 31 32 32 33
10 11 13 16 18 19 17 16 19 19 19 19 19 19 19 19 20 21 22 23 25 27 28 29 30 30 31 32 32 31 31 32 31 31 30 29 28 28 28 28 28 29 30 31 32 32 32 33 33
11 10 12 13 17 18 17 19 19 19 19 18 18 18 17 17 18 20 20 22 24 25 26 27 28 29 30 30 31 31 31 31 31 31 31 30 30 29 28 29 28 29 30 30 31 31 31 33 33
11 13 13 14 15 17 19 20 19 17 17 15 16 17 17 18 18 18 20 21 22 24 25 26 27 28 29 30 30 31 31 31 30 31 30 29 29 28 29 29 29 29 30 30 30 31 31 32 32
11 13 14 15 15 16 18 21 20 18 18 17 16 16 16 16 16 18 19 21 23 24 25 26 27 28 28 28 29 30 30 30 30 30 30 29 29 29 29 29 30 30 30 30 30 32 33 33 34
Wind_Direction
257 254 251 249 248 246 244 244 251 257 264 269 268 263 260 261 259 261 265 257 258 256 250 242 238 233 230 229 228 227 229 232 234 236 240 244 246 248 248 248 253 260 264 269 275 279 284 281 274
255 252 250 249 247 240 258 269 243 249 259 270 272 266 262 261 263 267 269 263 259 255 252 247 243 238 236 234 232 231 232 235 238 242 245 248 252 253 253 254 257 262 265 269 273 275 274 268 260
253 251 249 249 247 233 213 244 244 246 262 270 270 267 264 263 266 268 267 266 260 255 253 249 246 242 240 238 237 236 236 238 241 244 248 252 256 256 256 258 261 264 265 268 272 273 269 260 253
253 250 250 251 249 234 218 248 259 252 262 270 270 268 266 264 266 267 265 264 262 258 255 250 247 244 242 241 239 240 240 242 244 247 250 254 258 259 260 262 263 265 266 268 270 271 264 255 250
252 250 250 252 251 240 226 243 254 256 262 267 270 270 270 272 269 267 265 263 261 260 256 250 246 245 244 243 240 241 243 245 247 250 253 256 259 261 263 265 265 266 266 266 267 267 260 253 249
252 251 250 251 254 257 245 247 251 257 260 265 268 269 271 272 271 268 264 262 261 259 256 252 249 246 244 245 243 243 246 248 250 253 255 257 259 262 264 266 265 265 265 264 265 264 259 255 251
251 250 249 247 244 248 251 249 252 254 256 257 259 263 269 272 271 265 263 261 259 258 255 252 252 248 245 245 246 247 249 251 252 253 255 257 260 263 265 266 265 264 264 263 263 262 258 255 252
249 249 246 244 242 242 250 253 253 253 252 251 251 250 260 267 267 264 261 260 259 256 254 253 251 250 249 248 247 247 250 254 254 255 257 259 262 263 264 264 263 263 262 262 262 259 256 255 253
249 249 248 241 247 249 250 255 256 257 255 252 252 252 257 263 266 263 260 258 259 256 253 254 252 253 251 250 249 249 252 255 257 259 260 261 262 262 262 263 263 262 261 260 261 258 256 255 253
248 247 241 236 237 239 245 256 258 259 261 257 254 255 259 261 262 261 258 255 254 253 253 254 256 254 253 253 252 252 253 256 258 261 262 262 261 261 261 262 262 260 261 260 259 257 255 255 255
249 245 236 239 246 245 245 252 257 259 259 256 253 256 261 262 259 257 254 251 251 252 252 255 259 259 254 252 252 253 254 256 259 261 262 261 261 261 261 260 259 259 260 259 257 256 255 255 255
253 249 246 249 254 252 252 254 256 257 255 253 253 255 259 259 258 253 252 251 253 251 251 254 256 260 261 254 255 256 256 257 258 260 261 260 258 258 257 258 258 257 257 257 256 255 255 254 254
257 257 257 259 261 261 259 258 258 258 257 255 253 253 255 258 256 252 249 248 251 251 248 249 255 259 262 258 256 258 258 262 261 262 264 260 258 256 256 257 256 255 255 255 254 254 253 252 252
258 262 264 266 267 265 263 261 261 260 257 257 256 255 256 256 255 253 250 248 250 251 249 247 253 256 260 259 258 262 263 265 264 265 264 261 255 255 257 256 257 255 254 253 253 252 250 251 252
265 268 271 272 272 269 267 264 265 262 260 259 257 254 252 253 254 251 249 248 249 251 253 248 253 254 258 259 261 264 264 267 267 265 263 262 254 252 254 258 258 253 251 252 252 249 248 250 253
274 276 279 282 279 275 269 265 262 261 260 258 257 254 254 253 252 250 248 246 247 251 252 251 253 256 258 261 263 265 267 268 269 269 268 265 259 255 256 256 256 253 251 252 252 247 250 253 254
283 287 283 278 277 276 271 262 254 258 258 259 257 254 253 252 251 252 251 248 246 248 251 252 254 256 257 258 262 266 271 273 273 272 269 263 258 256 254 255 254 253 253 253 253 250 250 253 254
267 267 262 256 267 272 271 264 256 258 258 259 259 257 255 253 253 251 251 249 247 247 249 251 255 256 259 262 264 269 272 273 275 275 272 265 259 255 258 257 255 255 256 255 253 251 252 254 253
254 247 243 244 252 262 264 264 261 263 262 262 260 257 254 254 253 251 248 247 247 248 249 250 252 256 260 263 265 269 273 274 277 277 274 268 266 261 261 257 256 257 257 257 255 254 254 255 255
262 260 257 257 259 264 267 267 266 262 264 264 261 256 254 253 252 251 249 247 246 247 249 249 251 255 258 261 265 268 274 276 275 275 275 270 269 269 269 265 262 259 259 258 257 256 256 256 256
267 269 263 255 258 266 267 269 266 267 261 262 262 259 257 255 253 252 250 249 247 247 248 249 249 252 257 260 264 268 271 275 276 273 273 275 273 274 272 266 263 261 259 256 254 256 258 257 259
271 273 270 263 265 270 272 275 270 267 263 262 261 260 260 256 254 253 251 249 248 248 248 249 249 252 256 260 265 267 270 272 274 274 274 275 275 275 275 268 264 263 260 257 253 254 257 260 261
268 268 269 270 268 268 272 272 273 269 268 266 264 261 259 258 257 255 252 249 247 246 246 248 250 252 255 258 261 264 266 269 272 275 276 274 275 274 273 271 270 266 262 259 257 257 258 261 263
274 274 273 276 275 275 277 271 271 270 269 267 270 269 265 263 261 257 252 249 247 246 246 246 249 252 254 256 259 262 265 267 268 271 272 272 274 272 270 267 268 265 262 260 259 260 262 263 264
282 284 282 279 282 285 276 267 271 272 272 272 278 279 270 265 263 258 253 251 249 248 248 248 250 252 253 256 258 261 263 265 266 270 271 270 273 271 268 265 264 262 261 260 261 262 264 265 266
281 281 283 288 291 290 287 270 274 282 280 278 282 285 278 270 264 259 254 252 248 249 250 250 250 252 254 256 258 260 262 264 266 269 270 270 269 267 265 264 262 262 262 261 264 268 267 267 269
280 274 279 285 293 293 296 291 285 285 283 280 282 284 284 275 268 261 255 252 250 250 250 250 250 252 253 255 258 260 262 265 266 267 268 268 267 264 263 263 264 264 263 265 268 270 269 269 271
290 277 272 285 296 300 301 298 292 289 285 283 283 282 283 280 272 265 259 256 254 253 253 253 252 253 254 255 258 261 263 263 264 266 268 267 266 266 265 266 266 266 266 268 270 270 270 270 271
277 287 286 286 291 296 301 299 300 296 294 292 284 283 283 278 273 267 262 260 257 255 255 255 255 256 257 258 259 261 263 264 264 265 266 267 267 268 267 267 268 268 269 271 272 273 274 276 277
259 268 277 282 287 291 296 298 301 298 298 298 290 286 287 281 276 268 265 265 263 261 261 259 259 259 261 260 260 263 265 265 265 265 266 265 266 266 268 269 269 270 271 272 274 275 277 279 281
Height
5873 5874 5875 5876 5879 5880 5882 5885 5887 5886 5884 5883 5883 5883 5883 5882 5880 5883 5882 5881 5883 5883 5884 5885 5886 5887 5888 5889 5890 5891 5892 5893 5894 5894 5895 5896 5896 5896 5896 5896 5896 5896 5896 5895 5895 5895 5895 5895 5895
5870 5871 5872 5874 5875 5877 5881 5883 5885 5884 5881 5880 5881 5881 5880 5879 5877 5878 5879 5879 5881 5881 5882 5883 5884 5885 5886 5887 5888 5889 5890 5891 5892 5893 5894 5894 5895 5895 5895 5895 5895 5895 5895 5894 5894 5894 5894 5894 5894
5866 5867 5869 5870 5872 5874 5879 5882 5881 5879 5877 5878 5878 5878 5878 5876 5875 5876 5876 5877 5878 5879 5880 5881 5882 5883 5884 5885 5886 5887 5888 5889 5890 5891 5892 5893 5893 5893 5893 5893 5893 5893 5893 5893 5893 5893 5893 5893 5893
5862 5863 5865 5867 5869 5872 5875 5878 5877 5876 5875 5875 5875 5875 5874 5873 5874 5874 5874 5875 5876 5877 5877 5878 5879 5880 5881 5883 5884 5885 5886 5887 5888 5889 5890 5890 5891 5891 5892 5892 5892 5892 5892 5892 5892 5892 5892 5892 5892
5857 5859 5861 5863 5866 5869 5872 5875 5874 5873 5873 5871 5872 5871 5869 5869 5871 5872 5872 5873 5873 5874 5875 5875 5876 5877 5878 5880 5881 5882 5883 5884 5885 5886 5887 5888 5888 5889 5889 5890 5890 5890 5890 5890 5890 5890 5891 5891 5891
5853 5855 5857 5859 5862 5866 5869 5870 5869 5870 5870 5870 5870 5869 5866 5867 5868 5869 5870 5870 5871 5871 5872 5872 5873 5874 5875 5876 5878 5879 5880 5882 5882 5883 5884 5885 5885 5886 5887 5887 5888 5887 5887 5888 5888 5889 5889 5889 5890
5850 5851 5853 5856 5860 5864 5866 5866 5865 5865 5866 5867 5867 5867 5862 5862 5864 5865 5866 5867 5868 5868 5868 5869 5870 5870 5872 5873 5874 5876 5877 5878 5879 5880 5881 5881 5882 5883 5884 5885 5885 5885 5885 5885 5886 5887 5887 5888 5888
5845 5847 5848 5852 5855 5859 5861 5859 5859 5859 5861 5862 5862 5862 5859 5859 5860 5861 5863 5863 5864 5864 5865 5866 5867 5868 5868 5870 5871 5872 5873 5875 5876 5877 5877 5878 5879 5880 5881 5881 5882 5882 5882 5883 5883 5884 5885 5885 5886
5840 5843 5845 5848 5852 5855 5855 5853 5853 5853 5855 5856 5856 5856 5855 5856 5857 5858 5859 5860 5860 5861 5862 5863 5864 5864 5865 5866 5867 5868 5870 5871 5872 5873 5874 5874 5875 5876 5877 5878 5878 5879 5879 5880 5881 5881 5882 5883 5883
5837 5839 5841 5844 5846 5847 5848 5847 5848 5848 5849 5851 5851 5851 5850 5851 5853 5854 5855 5855 5856 5856 5858 5859 5860 5861 5862 5862 5863 5864 5865 5866 5868 5869 5869 5870 5871 5872 5873 5874 5874 5875 5876 5877 5878 5879 5879 5880 5881
5832 5835 5836 5837 5838 5840 5841 5841 5842 5843 5844 5846 5846 5846 5846 5846 5848 5849 5850 5850 5851 5852 5853 5854 5856 5856 5857 5858 5859 5860 5861 5862 5863 5864 5864 5866 5867 5868 5869 5870 5870 5871 5872 5873 5874 5875 5876 5877 5878
5829 5830 5831 5831 5832 5834 5835 5836 5837 5838 5839 5840 5841 5842 5842 5842 5843 5844 5845 5846 5847 5847 5848 5850 5852 5852 5852 5854 5854 5855 5856 5857 5858 5858 5859 5860 5862 5863 5864 5865 5865 5866 5867 5869 5870 5871 5872 5873 5874
5824 5825 5826 5827 5827 5828 5829 5830 5831 5832 5834 5834 5835 5835 5837 5837 5837 5839 5840 5842 5842 5841 5842 5846 5847 5847 5847 5848 5849 5850 5851 5852 5853 5853 5854 5855 5856 5858 5859 5859 5859 5861 5862 5864 5866 5867 5868 5869 5870
5820 5821 5821 5822 5822 5823 5824 5824 5825 5826 5827 5828 5829 5830 5831 5831 5832 5833 5834 5836 5836 5835 5836 5839 5841 5840 5841 5843 5844 5845 5846 5847 5848 5849 5849 5848 5850 5852 5853 5852 5853 5856 5858 5859 5859 5861 5863 5864 5866
5815 5816 5817 5817 5817 5817 5818 5819 5819 5820 5821 5822 5823 5824 5825 5825 5826 5827 5828 5831 5831 5832 5831 5832 5834 5835 5836 5838 5840 5840 5840 5841 5843 5843 5844 5843 5843 5845 5847 5849 5850 5851 5853 5854 5854 5856 5858 5860 5861
5811 5812 5813 5813 5812 5812 5814 5814 5815 5813 5815 5816 5817 5817 5818 5819 5820 5820 5821 5824 5826 5827 5827 5827 5829 5831 5832 5834 5835 5835 5835 5835 5836 5837 5838 5838 5838 5839 5841 5844 5845 5846 5848 5849 5851 5852 5854 5855 5857
5808 5809 5810 5812 5809 5808 5809 5809 5809 5808 5809 5810 5810 5811 5812 5813 5814 5815 5815 5817 5820 5822 5823 5823 5824 5827 5827 5829 5829 5830 5829 5830 5832 5832 5833 5833 5833 5834 5835 5837 5839 5841 5842 5844 5845 5847 5848 5850 5852
5807 5808 5809 5810 5808 5804 5804 5804 5804 5802 5803 5804 5804 5806 5806 5807 5808 5809 5810 5812 5815 5816 5818 5819 5819 5820 5821 5823 5824 5825 5826 5826 5826 5827 5828 5828 5828 5828 5829 5831 5833 5835 5836 5838 5840 5842 5843 5844 5846
5801 5802 5803 5804 5804 5801 5800 5799 5799 5797 5798 5798 5798 5800 5800 5801 5803 5803 5804 5806 5808 5810 5812 5814 5815 5817 5818 5819 5820 5820 5820 5821 5822 5823 5823 5823 5823 5823 5823 5825 5827 5828 5830 5832 5834 5836 5837 5838 5840
5796 5797 5797 5798 5798 5796 5794 5794 5794 5793 5793 5792 5792 5794 5793 5795 5796 5796 5798 5800 5802 5803 5806 5808 5810 5811 5812 5814 5815 5816 5815 5816 5817 5818 5818 5819 5818 5819 5819 5820 5821 5822 5824 5826 5828 5830 5832 5833 5834
5792 5793 5793 5793 5793 5791 5790 5789 5789 5788 5787 5786 5786 5786 5786 5788 5789 5789 5791 5792 5794 5796 5799 5801 5803 5805 5806 5807 5809 5810 5811 5811 5812 5812 5812 5813 5814 5814 5815 5815 5816 5817 5818 5820 5822 5824 5826 5827 5828
5788 5789 5789 5788 5788 5787 5787 5785 5784 5782 5780 5780 5780 5780 5780 5781 5782 5782 5784 5786 5788 5790 5792 5794 5796 5798 5800 5802 5803 5805 5806 5807 5807 5806 5807 5808 5809 5809 5810 5810 5811 5812 5813 5814 5816 5818 5819 5821 5821
5785 5785 5784 5783 5783 5782 5782 5780 5780 5777 5775 5773 5773 5774 5774 5775 5776 5776 5778 5780 5782 5783 5785 5787 5789 5792 5794 5796 5797 5799 5800 5802 5802 5802 5802 5803 5803 5804 5804 5805 5806 5807 5808 5809 5810 5811 5813 5814 5814
5782 5781 5780 5780 5779 5778 5778 5776 5775 5773 5771 5769 5768 5767 5768 5769 5770 5770 5771 5773 5775 5777 5779 5781 5783 5785 5788 5790 5791 5793 5794 5796 5796 5796 5796 5797 5798 5798 5799 5800 5801 5801 5802 5803 5805 5805 5806 5807 5807
5779 5779 5778 5776 5775 5774 5773 5771 5771 5768 5765 5765 5764 5763 5763 5764 5764 5764 5765 5767 5769 5771 5773 5775 5777 5779 5781 5783 5785 5786 5788 5789 5790 5790 5790 5791 5792 5793 5793 5794 5795 5795 5797 5798 5799 5799 5800 5800 5800
5776 5776 5776 5774 5772 5771 5768 5766 5765 5763 5762 5760 5760 5759 5757 5757 5758 5758 5759 5761 5763 5765 5766 5768 5770 5772 5775 5777 5779 5780 5781 5782 5783 5784 5785 5785 5786 5787 5787 5788 5788 5789 5790 5791 5792 5792 5793 5793 5793
5774 5774 5773 5771 5769 5767 5765 5762 5760 5759 5757 5755 5756 5755 5754 5753 5753 5754 5755 5756 5757 5759 5761 5762 5764 5766 5768 5770 5772 5773 5775 5776 5777 5778 5779 5779 5780 5780 5781 5782 5782 5783 5783 5784 5785 5785 5786 5786 5786
5772 5771 5770 5769 5767 5764 5763 5760 5756 5755 5753 5751 5751 5751 5750 5750 5750 5750 5751 5751 5753 5754 5755 5757 5758 5760 5762 5764 5765 5767 5768 5769 5770 5771 5771 5772 5773 5774 5774 5775 5775 5776 5777 5777 5777 5778 5778 5778 5778
5770 5769 5767 5766 5765 5762 5760 5759 5754 5751 5749 5748 5748 5748 5747 5746 5746 5746 5747 5747 5748 5749 5750 5751 5753 5754 5756 5757 5759 5760 5761 5762 5763 5764 5764 5765 5766 5767 5768 5768 5769 5769 5770 5770 5770 5771 5771 5770 5770
5766 5766 5765 5764 5762 5760 5758 5758 5751 5749 5747 5746 5745 5744 5743 5743 5742 5742 5743 5743 5743 5744 5745 5746 5747 5748 5750 5751 5752 5753 5754 5755 5756 5756 5757 5758 5759 5760 5760 5761 5761 5762 5762 5763 5763 5763 5763 5762 5761